Location: Aytr�
(46.1357°N, 1.1145°W)
Time: 02:57:41
(UTC+00:00)

ISS - Pass Details

Date: 25 September 2021
Orbit: 417 x 423 km, 51.6° (Epoch: 28 October)

Event Time Altitude Azimuth Distance (km) Brightness Sun altitude
Rises 19:42:43 0° 289° (WNW) 2,366 1.8 -19.0°
Reaches altitude 10° 19:44:58 10° 300° (WNW) 1,503 0.2 -19.4°
Maximum altitude 19:48:02 31° 5° (N) 763 -2.4 -19.9°
Enters shadow 19:48:29 30° 22° (NNE) 787 -2.4 -20.0°
